NOAA 16 DEB, 41252

Orbit data source: Space-Track

NOAA 16 DEB, 41252 is space debris in SSO originally from a launch on Thu, 21 Sep 2000 UTC launched from the Air Force Western Test Range (AFWTR). Debris objects in space refer to the collection of defunct objects orbiting the Earth. Examples of debris include non-operational satellites, rocket bodies, and fragments generated from explosions, collisions, or faulty payload assembly.

Loading next visibility...
Identifier
41252, 2000-055FC
Orbit
SSO
Country
Flag of USUS
Related business
Manufacturer
Unknown
Mission
Spacecraft
Bus & Motor
Unknown
Mass
Unknown
Launch date (UTC)
2000-09-21 (25 years ago)
Launch vehicle
Unknown
Launch site
Air Force Western Test Range (AFWTR)
Object type
Payload
Rocket body
Debris
Shape & HBR
Unknown shape, 0.1 m
Radar Cross Section
Small (<0.1 m²)

Expand to show TLE details & history
Last TLE update: 4 days ago

TLE from 4 days ago
0 NOAA 16 DEB
1 41252U 00055FC  25283.12516404  .00004225  00000-0  20723-2 0  9996
2 41252  98.9306 343.3434 0047540 337.6281  22.2820 14.17721508504321
Epoch: 2025-10-10T03:00Z
TLE epoch observation values (Epoch: 2025-10-10T03:00:14.173Z)
Latitude
0.00004°
Longitude
-80.69115°
Altitude
804.268 km
Speed
7.468 km/s
True Right ascension
22h 53m 22s
True Declination
0° 00' 00"
Sunlit
Object was in full shadow at epoch
Visualization orbit readout
Latitude
Unknown
Longitude
Unknown
Altitude
Unknown
Speed
Unknown
Apparent Right ascension
Unknown
Apparent Declination
Unknown
Sunlit
N/A
Visualization observer readout
Local Sidereal Time
01:55:18
Azimuth
Unknown
Elevation
Unknown
Doppler factor
Unknown
Orbital elements
Apogee altitude
864.51 km
Perigee altitude
795.972 km
Semi-major axis
7,208.378 km
Eccentricity
0.00475
Inclination
98.9306°
RAAN
343.3434°
Arg. of periapsis
337.6281°
True anomaly
22.4897°
Mean anomaly
22.282°
Eccentric anomaly
22.38573°
Mean motion
3.54639 °/min
Orbital period
101.51 mins
BSTAR
0.0020723
Loading maneuver chart data...
Computing Atmospheric mass density...
Loading historical data...
Loading historical data...
Loading historical data...
Loading historical data...
Loading historical data...
Loading historical data...
Loading historical data...

Documentation

Showing up to 5 results
|